Notices

Please take our survey and provide feedback: https://eccc.sondage-survey.ca/f/LanguageSelection.aspx?s=442ca660-fcf1-47c0-95a9-59707d6fd709

Please note that for the Engineering Climate Datasets, IDF dataset is available through this link.  Intensity-Duration-Frequency (IDF) Files: Includes the latest version of short-duration rainfall Intensity-Duration-Frequency (IDF) statistics in the form of tables and graphs with accompanying documentation for various locations across Canada.  Current IDF files can be accessed through our station finder application or downloaded for each province and territory across Canada.  In addition, historical versions of IDF files are also available for download.  Updates of IDF files are provided approximately every two years depending on the availability of data.   Thank you for your patience as we enhance our systems.

Hourly Data Report for September 16, 2019

EUREKA CLIMATE
NUNAVUT
Current Station Operator: ECCC - MSC

79°59'21.000" N
85°56'02.000" W
10.00 m
2401199
71613
NEK

Download Data

Hourly Data (September 2019)
Hourly Data Report for September 16, 2019
TIME
LST
Temp Definition
°C
Dew Point Definition
°C
Rel Hum Definition
%
Precip. Amount Definition
mm

Wind Dir Definition
10's deg

Wind Spd Definition
km/h
Visibility Definition
km
Stn Press Definition
kPa
Hmdx Definition


Wind Chill Definition


Weather Definition


00:00 -4.8 -5.4 95 0.0 2 8   101.94   -8 LegendNANA
01:00 -4.3 -5.0 95 0.0 10 7   101.99   -7 LegendNANA
02:00 -4.4 -4.8 97 0.0 10 4   102.02   -6 LegendNANA
03:00 -4.9 -5.4 97 0.0 5 5   102.05   -7 LegendNANA
04:00 -4.5 -4.7 99 0.0 7 6   102.11   -7 LegendNANA
05:00 -4.6 -4.7 99 0.0 1 6   102.15   -7 LegendNANA
06:00 -4.1 -4.4 98 0.0 30 5   102.17   -6 LegendNANA
07:00 -4.5 -5.0 96 0.0 1 8   102.19   -8 LegendNANA
08:00 -4.5 -5.0 96 0.0 3 8   102.19   -8 LegendNANA
09:00 -4.8 -5.1 98 0.0 1 9   102.19   -9 LegendNANA
10:00 -3.9 -4.3 97 0.0 31 6   102.20   -7 LegendNANA
11:00 -3.9 -5.1 91 0.0 35 5   102.20   -6 LegendNANA
12:00 -3.3 -4.2 94 0.0 29 11   102.20   -8 LegendNANA
13:00 -2.9 -4.1 92 0.0 28 9   102.18   -6 LegendNANA
14:00 -2.5 -3.9 90 0.0 29 8   102.20   -6 LegendNANA
15:00 -2.1 -3.5 90 0.0 28 9   102.19   -6 LegendNANA
16:00 -2.3 -3.5 91 0.0 27 9   102.20   -6 LegendNANA
17:00 -2.5 -3.4 93 0.0 2 3   102.21   -4 LegendNANA
18:00 -2.4 -3.5 92 0.2 3 4   102.21   -4 LegendNANA
19:00 -2.6 -4.2 89 0.0 4 1   102.23   -3 LegendNANA
20:00 -2.9 -4.0 92 0.0 36 4   102.23   -4 LegendNANA
21:00 -3.2 -4.3 92 0.0 36 4   102.25   -5 LegendNANA
22:00 -4.4 -4.9 96 0.0 2 10   102.27   -9 LegendNANA
23:00 -5.5 -5.7 99 0.0 1 13   102.28   -11 LegendNANA

Notes on Data Quality.

Legend

  • E = Estimated
  • M = Missing
  • NA = Not Available*
  • [empty] = Indicates an unobserved value
Date modified: